SL-14 DEB *

Satellite information

Favourite Embed

Satellite Type and Status

DEBRISIN ORBIT

Key statistics

Satellite SL-14 DEB * at a glance.

Uptime

12442

Days in orbit

Revolutions

≈ 14.2

Per day

Orbit

LEO

Low Earth Orbit

Inclination

82.6

Latest

Satellite identification and parameters

Extended collection of information and parameters for SL-14 DEB *.

Object identification

Identified? True

Debris? True

Object name: SL-14 DEB *

International designator: 1991-056DL

Object number (NORAD): 47086

Object ID (CCSDS): 47086

Country: COMMONWEALTH OF INDEPENDENT STATES (CIS)

Current information (Y/N): Y

RCS size: SMALL

Orbital parameters

Period: 101.346 minutes

Inclination: 82.5521 deg

SMA: 7200.526 km

Apoapsis: 827.946 km

Periapsis: 816.836 km

RAAN: 120.3963 deg

Eccentricy: 0.00077143

Argument of periapsis: 143.3039 deg

Mean anomaly: 216.8671 deg

Mean motion: 14.20876865 rev/day

Mean motion (dot): 0.00006266 rev/day2

B* drag term: 0.0028895257 1/REarth

Two-line elements (TLE)

Creation date: Sept. 6, 2025, 10:23 a.m.

Reference frame: TEME

Reference center: EARTH

Epoch: Sept. 2, 2025, 8:37 a.m. UTC

TLE line 0: 0 SL-14 DEB *

TLE line 1: 1 47086U 91056DL 25245.35936341 .00006266 00000-0 28895-2 0 9992

TLE line 2: 2 47086 82.5521 120.3963 0007714 143.3039 216.8671 14.20876865249234

Live tracking on map

Real-time ground track for satellite SL-14 DEB *.

In-orbit conjunctions

A list of the most updated potential collisions computed for object SL-14 DEB *.

Target Orbit TCA Probability of collision Miss distance Type
FENGYUN 1C DEB SSO 2025-05-05 17:18:52 0.0001170143 81.0 (m) DEBRIS
NOAA 16 DEB SSO 2024-09-07 05:27:31 0.0002228319 37.0 (m) DEBRIS

Associated space launch

Third generation meteorological satellite

SL-14 DEB * was lifted into orbit during the mission ‘Tsiklon-3 | Meteor-3 5’, on board a Tsiklon-3 space rocket.

The launch took place on Aug. 15, 1991, 9:15 a.m. from 32/2.

For more information about the launch, click the button.

Launch to space Tsiklon-3 | Meteor-3 5
Tsiklon-3 | Meteor-3 5

Agency: N/A

Status: Launch Successful

Launch date: Aug. 15, 1991, 9:15 a.m. UTC

Rocket: Tsiklon-3

Launch pad: 32/2

Location: Plesetsk Cosmodrome, Russian Federation

...

Latest news about this satellite

There are no fresh news available about this satellite. Check back as we update our databases every day.


Newsletter sign-up

Weekly statistics, charts and insights to help you stay on top of the space industry.